Regional Weather Roundup
Issued by NWS

Home | Current Version | Previous Version | Text Only | Print | Product List | Glossary On
Versions: 1 2 3 4 5 6 7 8 9 10 11 12 13 14 15 16 17 18 19 20 21 22 23 24 25 26 27 28 29 30 31 32 33 34 35 36 37 38 39 40 41 42 43 44 45 46 47 48 49 50
425
ASUS43 KDMX 231406
RWRIA

WEATHER ROUNDUP FOR IOWA
NATIONAL WEATHER SERVICE DES MOINES IA
800 AM CST THU NOV 23 2017

NOTE: "FAIR" INDICATES FEW OR NO CLOUDS BELOW 12,000 FEET WITH NO
SIGNIFICANT WEATHER AND/OR OBSTRUCTIONS TO VISIBILITY.

* - THESE STATIONS ARE NOT NWS STATIONS...THUS NOT UNDER NWS
QUALITY CONTROL.  THEY ALSO DO NOT REPORT WEATHER SUCH
AS PRECIPITATION OR FOG.

IAZ001>003-012>014-020>022-031>034-043>046-231500-
   NORTHWEST IOWA

CITY           SKY/WX    TMP DP  RH WIND       PRES   REMARKS
CARROLL *      CLOUDY    30  25  80 W6        29.98R WCI  24
CHEROKEE *     CLOUDY    31  28  86 NW3       30.01R
DENISON *      CLOUDY    30  25  80 CALM      30.01S
LE MARS *      CLOUDY    32  27  80 NW5       30.01R WCI  27
ORANGE CITY *  CLOUDY    28  27  93 NW5       30.00R WCI  23
SHELDON *      CLOUDY    27  23  86 CALM      29.99R
SIOUX CITY     CLOUDY    34  30  85 NW6       30.02R WCI  29
SPENCER        CLOUDY    25  21  85 W8        29.99R WCI  16
STORM LAKE *   CLOUDY    28  25  86 NW10      29.99R WCI  19
$$

IAZ055>058-069>071-079>083-090>094-231500-
   SOUTHWEST IOWA

CITY           SKY/WX    TMP DP  RH WIND       PRES   REMARKS
ATLANTIC *     CLOUDY    25  23  93 CALM      30.00R
AUDUBON *      CLOUDY    28  25  86 CALM      29.99R
CLARINDA *     CLOUDY    27  23  86 CALM      30.03R
COUNCIL BLFS * CLOUDY    34  30  86 W9        30.01R WCI  26
CRESTON *      CLOUDY    30  23  74 W8        30.00R WCI  23
HARLAN  *      CLOUDY    27  25  93 CALM      30.03R
LAMONI         CLOUDY    30  22  72 SW8       29.99S WCI  22
RED OAK *      CLOUDY    27  23  86 CALM      30.02R
SHENANDOAH *   CLOUDY    30  25  80 SW3       30.03R
$$

IAZ047>049-059>061-072>074-084-231500-
   CENTRAL IOWA

CITY           SKY/WX    TMP DP  RH WIND       PRES   REMARKS
AMES           CLOUDY    32  25  75 NW8       29.97R WCI  25
ANKENY *       CLOUDY    32  25  74 NW7       29.98R WCI  26
BOONE *        CLOUDY    32  23  69 NW7       29.96R HAZE    WCI  26
CHARITON *     CLOUDY    32  21  64 W9        29.99R WCI  24
DES MOINES     CLOUDY    32  23  69 W6        29.98R WCI  26
GRINNELL*      CLOUDY    29  22  73 SW6       29.97R WCI  23
KNOXVILLE *    CLOUDY    32  21  64 SW9       29.97R WCI  24
MARSHALLTOWN   CLOUDY    26  20  77 W5        29.96R WCI  20
NEWTON *       CLOUDY    30  21  69 SW6       29.97R WCI  24
PELLA *        CLOUDY    33  22  65 W5        29.99S WCI  28
PERRY *          N/A     32  24  73 NW5       29.98R WCI  27
$$

IAZ004>006-015-016-023>025-035-036-231500-
   NORTH CENTRAL IOWA

CITY           SKY/WX    TMP DP  RH WIND       PRES   REMARKS
ALGONA *       CLOUDY    28  25  86 NW6       29.96R WCI  22
CLARION *      CLOUDY    25  23  93 NW6       29.96R WCI  18
ESTHERVILLE    CLOUDY    26  23  88 NW10      29.97R WCI  16
FORT DODGE *   CLOUDY    28  23  81 NW3       29.98R
MASON CITY     CLOUDY    27  20  75 NW9       29.96R WCI  18
FOREST CITY *    N/A     28  23  80 N5        29.94S WCI  23
WEBSTER CITY * CLOUDY    28  21  74 NW9       29.96R WCI  20
IOWA FALLS *     N/A     26  21  81 W6        29.96R WCI  19
$$

IAZ007>011-017>019-026>030-037>042-050>054-066-231500-
   NORTHEAST IOWA

CITY           SKY/WX    TMP DP  RH WIND       PRES   REMARKS
CEDAR RAPIDS   CLOUDY    27  20  75 S6        29.96R WCI  20
CHARLES CITY * CLOUDY    25  19  80 W3        29.95R
CLINTON *      CLOUDY    29  23  78 SW5       30.00S WCI  24
DECORAH *      CLOUDY    27  19  74 CALM      29.93S
DUBUQUE        CLOUDY    27  20  75 SW7       29.96R WCI  19
MONTICELLO *   CLOUDY    28  21  74 CALM      29.97S
OELWEIN *      CLOUDY    25  23  93 CALM      29.95S
WATERLOO       CLOUDY    24  19  81 CALM      29.95S
$$

IAZ064-065-067-068-078-231500-
   EAST CENTRAL IOWA

CITY           SKY/WX    TMP DP  RH WIND       PRES   REMARKS
DAVENPORT      PTCLDY    31  20  63 S8        30.01R WCI  23
IOWA CITY      CLOUDY    30  20  66 CALM      30.00S
MT. PLEASANT * CLOUDY    30  21  67 S7        30.00R WCI  24
MUSCATINE *    CLOUDY    30  21  69 S3        30.01R
QUAD CITIES    CLOUDY    33  19  56 VRB5      29.99S WCI  29
$$

IAZ062-063-075>077-085>089-095>099-231500-
   SOUTHEAST IOWA

CITY           SKY/WX    TMP DP  RH WIND       PRES   REMARKS
BURLINGTON     CLOUDY    32  23  69 SW8       30.00R WCI  25
FAIRFIELD *    CLOUDY    32  21  64 SW7       29.98R WCI  26
FORT MADISON * CLOUDY    34  21  60 SW9       30.01R WCI  26
KEOKUK *       CLOUDY    32  21  64 SW8       30.00S WCI  25
OSKALOOSA *      N/A     31  24  73 W9        29.98S WCI  23
OTTUMWA        CLOUDY    33  22  63 W9        29.98R WCI  25
WASHINGTON *   CLOUDY    30  23  74 SW7       30.00R WCI  23
$$

ABBREVIATIONS USED IN REMARKS
   TC - TEMPERATURES IN CELSIUS
  WCI - WIND CHILL INDEX
   HX - HEAT INDEX
  VSB - VISIBILITY
$$





USA.gov is the U.S. government's official web portal to all federal, state and local government web resources and services.